[[{"header":{"parameterUnit":"m.s-1","parameterCategory":1,"la1":30.2991,"la2":30.254,"lo1":-89.0895,"lo2":-89.0444,"dy":0.0017,"dx":0.0017,"nx":28,"ny":28,"refTime":"2024-08-14T21:00:00:Z","depth":0,"parameterNumber":2,"parameterNumberName":"U-component_of_WINDS"},"data":[0,0,0,0,0,0,0,0,0,0,0,0,0,0,0,0,0,0,0,0,0,0,0,0,0,0,0,0,0,0,0,0,0,0,0,0,0,0,0,0,0,0,0,0,0,0,0,0,0,0,0,0,0,0,0,0,0,0,0.9665,0.9666,0,0.9747,0.9748,0.9749,0.9765,0.9764,0.9763,0.9763,0.9849,0.9852,0.9855,0,0,0,0,0,0,0,0,0,0,0,0,0,0.952,0.9523,0.9665,0.9666,0.9667,0.9747,0.9748,0.9749,0.9765,0.9764,0.9763,0.9762,0.9848,0.9852,0.9855,0,0,0,0,0,0,0,0,0,0,0,0,0,0.9591,0.9524,0.9664,0.9684,0.9687,0.9747,0.9748,0.975,0.9765,0.9764,0.9763,0.9762,0.9847,0.9851,0.9856,0.9903,0,0,0.9869,0.9871,0,0,0,0,0,0,0,0,0.9587,0.9596,0.968,0.9683,0.9686,0.9745,0.9729,0.9801,0.9765,0.9735,0.9763,0.9761,0.9815,0.9822,0.984,0.9907,0.9911,0.987,0.9872,0.9874,0.9875,0,0,0,0,0,0,0,0.9582,0.9593,0.9697,0.9681,0.9685,0.9689,0.9698,0.9743,0.978,0.9738,0.9739,0.9748,0.9817,0.9836,0.9842,0.9912,0.9869,0.9873,0.9876,0.9878,1.0019,1.002,0,0,0,0,0,0,0.9574,0.9589,0.9695,0.97,0.9633,0.9692,0.9702,0.9727,0.978,0.9787,0.9749,0.9749,0.9829,0.9837,0.9845,0.9902,0.9874,0.9878,0.9881,1.0018,1.0019,1.002,0,0,0,0,0,0,0.957,0.9583,0.9691,0.9645,0.9659,0.9696,0.9723,0.9729,0.9748,0.9788,0.9795,0.9762,0.9828,0.9839,0.9888,0.9906,0.988,0.9884,1.0017,1.0018,1.002,1.0018,0,0,0,0,0,0,0.9566,0.9582,0.96,0.9645,0.9661,0.9733,0.9724,0.9731,0.9755,0.9756,0.9802,0.9809,0.9828,0.9881,0.9892,0.9911,0.9888,1.0015,1.0017,1.0019,1.0016,1.0019,1.0021,0,0,0,0,0,0.9561,0.9597,0.9601,0.9614,0.9685,0.9734,0.9743,0.9764,0.9757,0.9775,0.9801,0.9807,0.9902,0.9886,0.9899,0.9919,1.0014,1.0017,1.0019,1.0015,1.0018,1.0021,0,0,0,0,0,0,0.9555,0.9604,0.9608,0.966,0.9692,0.9736,0.976,0.9768,0.9803,0.9802,0.9828,0.9838,0.9885,0.9907,0.9888,0.9966,0.9957,0.9963,0.995,0.9953,0.9956,0.995,0.9891,0,0,0,0,0,0.956,0.9595,0.9636,0.9677,0.9693,0.9724,0.9746,0.9759,0.9794,0.9808,0.9837,0.9871,0.9908,0.9932,0.9969,1.0019,1.0029,1.0039,1.0042,1.0044,1.0048,1.0074,1.0079,1.0029,1.0029,1.0029,0,0,0.957,0.9601,0.9622,0.9677,0.9703,0.9739,0.9735,0.9774,0.98,0.9814,0.9861,0.9883,0.9923,0.9971,0.9995,0.9992,1.0063,1.0047,1.0048,1.0051,1.0077,1.0082,1.0086,1.003,1.003,1.003,0,0,0.9607,0.9634,0.9671,0.9696,0.9736,0.9756,0.9764,0.9806,0.9821,0.9868,0.9879,0.9911,0.9975,1.0001,1.0023,1.0066,1.0073,1.0078,1.0091,1.0116,1.012,1.0124,1.0138,1.0142,1.0082,1.0082,1.0082,0,0.9615,0.9668,0.9689,0.9726,0.9749,0.9761,0.9798,0.9823,0.9872,0.9888,0.9883,0.9962,0.9989,1.0044,1.0054,1.0072,1.0082,1.0073,1.0118,1.0122,1.0125,1.0139,1.0144,1.0082,1.0082,1.0082,1.0082,0,0.9675,0.9712,0.9736,0.9782,0.9808,0.9845,0.9871,0.9895,0.9905,0.9925,0.9972,1.0005,1.0047,1.0061,1.0072,1.0116,1.0113,1.0113,1.0104,1.013,1.0143,1.0148,1.0082,1.0082,1.0082,1.0082,0,0,0.9712,0.9766,0.9775,0.9795,0.9838,0.9867,0.9903,0.9943,0.9963,0.9996,1.0026,1.0079,1.0078,1.0103,1.0117,1.0139,1.0169,1.0136,1.0138,1.014,1.0217,1.0216,1.0222,1.0173,1.0174,1.0175,1.0213,0,0.9752,0.9817,0.9836,0.989,0.9923,0.9935,0.9966,0.9996,1.0015,1.0045,1.0067,1.0103,1.01,1.0114,1.0137,1.016,1.0185,1.0158,1.0201,1.0203,1.0191,1.0229,1.0229,1.0264,1.0219,1.022,1.022,0,0.9809,0.9841,0.9899,0.9935,0.995,0.9978,1.0015,1.0044,1.0077,1.0089,1.0115,1.0127,1.0164,1.0154,1.0205,1.0186,1.0205,1.0219,1.0221,1.0226,1.0213,1.0234,1.0276,1.028,1.0229,1.0228,1.0228,0,0.9828,0.9886,0.9927,0.9944,0.9988,1.0007,1.0027,1.0059,1.0081,1.0113,1.0127,1.0164,1.0184,1.0211,1.0232,1.0223,1.0281,1.0272,1.0291,1.0291,1.0304,1.0302,1.0348,1.0317,1.0316,1.0316,1.0316,0,0.9871,0.9905,0.9936,0.9962,1.0,1.002,1.0057,1.0077,1.0105,1.0134,1.0146,1.0173,1.0199,1.0229,1.0246,1.0284,1.0294,1.0304,1.0308,1.0303,1.0301,1.0315,1.0313,1.0318,1.0317,1.0317,1.0317,0,0.9899,0.9921,0.9967,1.0004,1.0014,1.004,1.0072,1.0096,1.0115,1.0151,1.0161,1.019,1.0226,1.0249,1.0295,1.0306,1.0348,1.0352,1.0336,1.0338,1.0355,1.0353,1.0411,1.0419,1.0383,1.0383,1.0383,0,0.9925,0.9951,0.999,1.001,1.0029,1.0061,1.0083,1.0103,1.0125,1.0163,1.0183,1.0219,1.0249,1.0306,1.0331,1.0366,1.037,1.0388,1.0375,1.0368,1.0369,1.0367,1.0369,1.039,1.039,1.039,1.039,0,0.9968,0.9977,1.0007,1.0041,1.0067,1.0095,1.0123,1.0138,1.0163,1.0187,1.0223,1.0246,1.0292,1.0327,1.0364,1.0383,1.0391,1.0394,1.04,1.0395,1.0384,1.0388,1.0341,1.0393,1.0392,1.0392,1.0392,1.0392,0.9995,1.0018,1.0048,1.0081,1.0104,1.0129,1.0153,1.0174,1.0204,1.0242,1.0252,1.0289,1.032,1.0369,1.0389,1.0418,1.0416,1.0425,1.0427,1.0429,1.0428,1.0379,1.0425,1.0425,1.0425,1.0425,1.0425,0,1.0037,1.0057,1.0087,1.0124,1.015,1.0154,1.0184,1.0205,1.0237,1.0265,1.0293,1.0333,1.0367,1.0394,1.0428,1.0446,1.045,1.0454,1.0453,1.0457,1.0429,1.042,1.045,1.045,1.045,1.045,1.045,1.045,1.0062,1.0101,1.0113,1.0162,1.0181,1.0217,1.0234,1.0256,1.0278,1.0322,1.0349,1.0366,1.0393,1.0429,1.0459,1.0466,1.0478,1.0481,1.0489,1.0462,1.0459,1.0457,1.0448,1.0484,1.0484,1.0514,1.0515,1.0515]},{"header":{"parameterUnit":"m.s-1","parameterCategory":1,"la1":30.2991,"la2":30.254,"lo1":-89.0895,"lo2":-89.0444,"dy":0.0017,"dx":0.0017,"nx":28,"ny":28,"refTime":"2024-08-14T21:00:00:Z","depth":0,"parameterNumber":3,"parameterNumberName":"V-component_of_WINDS"},"data":[0,0,0,0,0,0,0,0,0,0,0,0,0,0,0,0,0,0,0,0,0,0,0,0,0,0,0,0,0,0,0,0,0,0,0,0,0,0,0,0,0,0,0,0,0,0,0,0,0,0,0,0,0,0,0,0,0,0,4.39,4.39,0,4.3863,4.3862,4.3862,4.3836,4.3836,4.3836,4.3836,4.3796,4.3795,4.3795,0,0,0,0,0,0,0,0,0,0,0,0,0,4.3947,4.3947,4.39,4.39,4.3899,4.3863,4.3862,4.3862,4.3836,4.3836,4.3836,4.3836,4.3797,4.3796,4.3794,0,0,0,0,0,0,0,0,0,0,0,0,0,4.392,4.3947,4.39,4.3882,4.388,4.3863,4.3862,4.3862,4.3836,4.3836,4.3836,4.3836,4.3797,4.3796,4.3794,4.3792,0,0,4.379,4.379,0,0,0,0,0,0,0,0,4.3922,4.3919,4.3886,4.3884,4.3881,4.3854,4.3864,4.3838,4.3837,4.3853,4.3836,4.3836,4.3816,4.3813,4.3806,4.379,4.3788,4.379,4.3789,4.3789,4.3788,0,0,0,0,0,0,0,4.3924,4.392,4.3885,4.3885,4.3883,4.3875,4.3871,4.3859,4.3836,4.3852,4.385,4.3846,4.3814,4.3808,4.3805,4.3787,4.379,4.3789,4.3788,4.3788,4.3764,4.3764,0,0,0,0,0,0,4.3929,4.3922,4.3887,4.3884,4.3901,4.3875,4.387,4.3863,4.3836,4.3832,4.3846,4.3845,4.381,4.3807,4.3804,4.3797,4.3789,4.3788,4.3787,4.3764,4.3764,4.3764,0,0,0,0,0,0,4.393,4.3926,4.3888,4.3902,4.3897,4.3874,4.3867,4.3862,4.3856,4.3832,4.3828,4.3843,4.381,4.3806,4.3794,4.3795,4.3787,4.3786,4.3764,4.3764,4.3764,4.3785,0,0,0,0,0,0,4.3931,4.3926,4.3926,4.3903,4.3897,4.388,4.3867,4.3862,4.3854,4.3852,4.3829,4.3824,4.3809,4.3796,4.3793,4.3793,4.3785,4.3763,4.3764,4.3764,4.3784,4.3786,4.3788,0,0,0,0,0,4.3933,4.3934,4.3926,4.3922,4.3895,4.3881,4.3877,4.386,4.3854,4.3852,4.3837,4.3825,4.3796,4.3795,4.3791,4.3792,4.3763,4.3764,4.3764,4.3784,4.3786,4.3788,0,0,0,0,0,0,4.3957,4.393,4.3922,4.3915,4.39,4.3876,4.3874,4.3863,4.385,4.3848,4.3827,4.3822,4.3812,4.3801,4.3801,4.3786,4.3778,4.3778,4.3794,4.3796,4.3798,4.3801,4.3784,0,0,0,0,0,4.3962,4.3953,4.3929,4.3925,4.3919,4.3898,4.3891,4.3878,4.3862,4.3856,4.384,4.3824,4.3811,4.3803,4.379,4.3782,4.3776,4.378,4.3782,4.3783,4.3783,4.3776,4.3777,4.3766,4.3766,4.3766,0,0,4.3971,4.3955,4.3951,4.393,4.3917,4.3907,4.3893,4.3883,4.3875,4.3854,4.3842,4.383,4.3811,4.3801,4.3796,4.3791,4.3785,4.3784,4.3785,4.3784,4.3777,4.3778,4.3779,4.3766,4.3766,4.3766,0,0,4.3983,4.3971,4.3965,4.3953,4.3933,4.3919,4.3918,4.3895,4.3886,4.3874,4.3858,4.3847,4.3826,4.3812,4.3803,4.3807,4.3795,4.3803,4.3812,4.3806,4.3807,4.3807,4.3808,4.3808,4.3803,4.3803,4.3803,0,4.3997,4.3982,4.3964,4.3955,4.3945,4.3926,4.3919,4.3908,4.3885,4.3878,4.3873,4.3845,4.3831,4.3816,4.3817,4.3811,4.3807,4.3806,4.3808,4.3809,4.3809,4.3809,4.3809,4.3804,4.3804,4.3804,4.3804,0,4.3999,4.3989,4.3987,4.3965,4.3955,4.3948,4.3927,4.3919,4.3907,4.3893,4.388,4.3862,4.3844,4.384,4.3829,4.3823,4.3821,4.3812,4.3804,4.3812,4.3811,4.3811,4.3806,4.3805,4.3805,4.3805,0,0,4.4026,4.3994,4.3993,4.3982,4.3959,4.395,4.3941,4.3923,4.3916,4.3901,4.3891,4.3873,4.3864,4.3853,4.384,4.3834,4.3837,4.3826,4.3825,4.3828,4.3828,4.3834,4.3835,4.3829,4.3829,4.3828,4.3829,0,4.4033,4.4016,4.3999,4.3987,4.3976,4.3957,4.3949,4.3933,4.3919,4.3907,4.3891,4.3878,4.3868,4.3861,4.3855,4.3838,4.3836,4.3838,4.3818,4.3818,4.3823,4.3834,4.3841,4.3843,4.3829,4.3829,4.3829,0,4.404,4.4025,4.4013,4.3989,4.3984,4.3977,4.3958,4.3947,4.3928,4.3918,4.3905,4.3891,4.3878,4.3871,4.3852,4.3854,4.3844,4.3835,4.3834,4.3831,4.3824,4.3831,4.3843,4.3843,4.3829,4.3829,4.3829,0,4.4059,4.4036,4.4025,4.4017,4.3989,4.3984,4.3972,4.3953,4.3943,4.3926,4.3919,4.3902,4.3892,4.3878,4.3858,4.3855,4.3841,4.3833,4.3831,4.3832,4.3829,4.383,4.384,4.3825,4.3825,4.3825,4.3825,0,4.4068,4.4061,4.4033,4.4026,4.4017,4.3997,4.3988,4.3974,4.3956,4.3946,4.3928,4.3918,4.3893,4.3879,4.3864,4.385,4.3846,4.3837,4.3832,4.3838,4.3839,4.3831,4.3831,4.3825,4.3825,4.3825,4.3825,0,4.4088,4.4069,4.4056,4.403,4.4024,4.4018,4.3996,4.3988,4.3972,4.3959,4.3954,4.393,4.3913,4.3892,4.3869,4.3858,4.3845,4.384,4.3852,4.385,4.3849,4.3849,4.3854,4.3853,4.384,4.384,4.384,0,4.4095,4.4089,4.4063,4.4054,4.4043,4.403,4.402,4.3999,4.3988,4.3965,4.396,4.3941,4.3926,4.3899,4.3879,4.386,4.3853,4.3856,4.385,4.3855,4.3852,4.3852,4.3851,4.3857,4.3858,4.3858,4.3858,0,4.4109,4.4099,4.4086,4.4068,4.4056,4.4041,4.4026,4.402,4.3995,4.3984,4.3967,4.3955,4.393,4.3912,4.389,4.3876,4.3862,4.386,4.3858,4.3864,4.3871,4.3866,4.3856,4.386,4.386,4.386,4.386,4.3859,4.4121,4.4114,4.4095,4.408,4.4065,4.4051,4.4042,4.4025,4.4011,4.399,4.3978,4.396,4.3939,4.3909,4.3895,4.388,4.3876,4.3874,4.3873,4.3873,4.3874,4.3874,4.3876,4.3876,4.3876,4.3876,4.3876,0,4.4133,4.4119,4.4106,4.4084,4.4072,4.4061,4.4042,4.4032,4.4017,4.3999,4.3984,4.3963,4.3945,4.3923,4.3902,4.3894,4.3887,4.389,4.389,4.3886,4.388,4.3883,4.3896,4.3896,4.3896,4.3896,4.3896,4.3896,4.4138,4.4125,4.4114,4.4093,4.4079,4.4063,4.4053,4.4039,4.4024,4.4002,4.3987,4.3973,4.3952,4.393,4.3912,4.3906,4.3899,4.3903,4.3894,4.3889,4.3887,4.3886,4.3888,4.3901,4.3901,4.3902,4.3902,4.3902]}]]